Location: Unspecified
(0.0000°N, 0.0000°E)
Time: 08:10:51
(UTC+00:00)

Vanguard 2 - Pass Details

Date: 24 October 2021
Orbit: 554 x 2936 km, 32.9° (Epoch: 06 December)

Event Time Altitude Azimuth Distance (km) Brightness Sun altitude
Rises 18:55:02 0° 219° (SW) 5,826 12.9 -17.3°
Reaches altitude 10° 18:59:04 10° 211° (SSW) 5,103 12.3 -18.3°
Maximum altitude 19:13:21 38° 148° (SSE) 3,876 10.8 -21.8°
Enters shadow 19:22:17 25° 103° (ESE) 4,585 10.9 -24.0°
Drops below altitude 10° 19:28:57 10° 86° (E) 5,613 - -25.6°
Sets 19:33:34 0° 79° (E) 6,450 - -26.7°
